This is the latest recevied weather packets stored in our database for station/object N8TWM-13. If no packets are shown the sender has not sent any weather packets the latest 10 day(s).
| Time | Temp. | Humidity | Pressure | Rain* | Wind** | Luminosity | Snow |
|---|---|---|---|---|---|---|---|
| 1778086164 | 12.78° C | 63% | 1012.3 hPa | 0 mm | - | 597 W/m² | - |
| 1778085861 | 12.22° C | 62% | 1012.3 hPa | 0 mm | - | 315 W/m² | - |
| 1778085554 | 12.22° C | 61% | 1012.5 hPa | 0 mm | - | 353 W/m² | - |
| 1778085248 | 12.78° C | 64% | 1012.5 hPa | 0 mm | - | 351 W/m² | - |
| 1778084943 | 11.67° C | 63% | 1012.7 hPa | 0 mm | - | 845 W/m² | - |
| 1778084641 | 12.22° C | 62% | 1012.5 hPa | 0 mm | - | 663 W/m² | - |
| 1778084338 | 12.78° C | 61% | 1012.3 hPa | 0 mm | - | 286 W/m² | - |
| 1778084036 | 12.22° C | 56% | 1012.2 hPa | 0 mm | - | 735 W/m² | - |
| 1778083734 | 12.78° C | 63% | 1012.3 hPa | 0 mm | - | 360 W/m² | - |
| 1778083430 | 12.22° C | 66% | 1012 hPa | 0 mm | - | 414 W/m² | - |
| 1778083128 | 11.67° C | 63% | 1012.1 hPa | 0 mm | - | 674 W/m² | - |
| 1778082825 | 11.11° C | 63% | 1012 hPa | 0 mm | - | 627 W/m² | - |
| 1778081703 | 11.11° C | 68% | 1011.6 hPa | 0 mm | - | 649 W/m² | - |
| 1778081400 | 11.11° C | 71% | 1011.7 hPa | 0 mm | - | 223 W/m² | - |
| 1778081096 | 11.11° C | 70% | 1011.9 hPa | 0 mm | - | 121 W/m² | - |
| 1778080795 | 10.56° C | 72% | 1011.9 hPa | 0 mm | - | 453 W/m² | - |
| 1778080492 | 10.56° C | 70% | 1011.7 hPa | 0 mm | - | 626 W/m² | - |
| 1778080189 | 10° C | 73% | 1011.9 hPa | 0 mm | - | 544 W/m² | - |
| 1778079885 | 10° C | 71% | 1011.9 hPa | 0 mm | - | 313 W/m² | - |
| 1778079583 | 10° C | 72% | 1011.7 hPa | 0 mm | - | 378 W/m² | - |
| 1778079278 | 10.56° C | 73% | 1011.5 hPa | 0 mm | - | 507 W/m² | - |
| 1778078977 | 10.56° C | 73% | 1011.4 hPa | 0 mm | - | 487 W/m² | - |
| 1778078673 | 10° C | 73% | 1011.3 hPa | 0 mm | - | 482 W/m² | - |
| 1778078371 | 10.56° C | 73% | 1011.2 hPa | 0 mm | - | 648 W/m² | - |
| 1778078068 | 10° C | 73% | 1011.2 hPa | 0 mm | - | 855 W/m² | - |
* Rain latest hour (hover to see other rain measurements)
** Current wind speed in m/s (hover to see current wind gust speed)